Regional Weather Roundup
Issued by NWS Sterling, VA

Home | Current Version | Previous Version | Text Only | Print | Product List | Glossary On
Versions: 1 2 3 4 5 6 7 8 9 10 11 12 13 14 15 16 17 18 19 20 21 22 23 24 25 26 27
000
ASUS41 KLWX 251811
RWRLWX

REGIONAL WEATHER ROUNDUP
NATIONAL WEATHER SERVICE BALTIMORE MD/WASHINGTON DC
200 PM EDT SUN JUN 25 2017

Note: "FAIR" indicates few or no clouds below 12,000 feet
with no significant weather and/or obstructions to visibility.
 TC=TEMPERATURE CELSIUS

 * =Non NWS site. Station does not report precipitation (e.g. rain,
    snow, etc.), thunder, or fog.

DCZ001-MDZ009-015-VAZ040>042-051-053>054-251900-
WASHINGTON METRO

CITY           SKY/WX    TMP DP  RH WIND       PRES   REMARKS
WASHINGTON NAT PTSUNNY   84  58  40 NW12      30.01F
DULLES         PTSUNNY   83  53  35 W10       30.02F
ANDREWS AFB    PTSUNNY   84  56  39 W8        30.01F
FT BELVOIR     MOSUNNY   85  57  38 SW7       30.01F
QUANTICO       MOSUNNY   86  57  37 VRB6      30.02F
COLLEGE PARK*  MOSUNNY   81  57  43 W7        30.00F
LEESBURG*      SUNNY    N/A N/A N/A NW8G21    30.03F
MANASSAS*      PTSUNNY   82  57  42 W12       30.02F
GAITHERSBURG*  MOSUNNY   80  57  45 W12       30.03F

$$

MDZ006>007-011-014-251900-
BALTIMORE METRO

CITY           SKY/WX    TMP DP  RH WIND       PRES   REMARKS
BWI AIRPORT    MOSUNNY   84  56  38 NW15G21   29.99F
MD SCIENCE CTR   N/A     85  54  34 MISG      29.99F
MARTIN STATE   PTSUNNY   84  61  45 W12       30.00F
ANNAPOLIS      MOSUNNY   81  60  48 W12       29.99F
FORT MEADE*    MOSUNNY   81  59  47 W7        30.03F

$$

MDZ012-015-019>023-251900-
MARYLAND EASTERN SHORE

CITY           SKY/WX    TMP DP  RH WIND       PRES   REMARKS
OCEAN CITY     MOSUNNY   77  64  64 E8        30.00F
SALISBURY      PTSUNNY   84  63  49 N7        29.99F
BAY BRIDGE AP* PTSUNNY   82  59  44 W8        30.00F
CAMBRIDGE*     SUNNY     84  54  34 NW9       30.01F
EASTON*        MOSUNNY   84  55  37 NW7       30.05S

$$

MDZ017>025-251900-
SOUTHERN MARYLAND

CITY           SKY/WX    TMP DP  RH WIND       PRES   REMARKS
PATUXENT RIVER PTSUNNY   84  58  40 N9        30.01F
ST INIGOES     PTSUNNY   84  61  45 SW6       30.01F
LEONARDTOWN*   PTSUNNY   81  59  47 W7        30.03F

$$

MDZ003>005-251900-
NORTH CENTRAL MARYLAND

CITY           SKY/WX    TMP DP  RH WIND       PRES   REMARKS
FREDERICK*     MOSUNNY   82  46  28 NW10G16   30.05F
HAGERSTOWN APT MOSUNNY   81  50  33 SW14G23   30.02F
WESTMINSTER*   PTSUNNY   84  55  37 W10G17    30.02F

$$

MDZ501>502-251900-
WESTERN MARYLAND

CITY           SKY/WX    TMP DP  RH WIND       PRES   REMARKS
OAKLAND*       NOT AVBL
CUMBERLAND*    SUNNY     79  45  29 W13G20    30.09F

$$

VAZ025>031-251900-
SHENANDOAH VALLEY

CITY           SKY/WX    TMP DP  RH WIND       PRES   REMARKS
WINCHESTER*    MOSUNNY   79  50  36 W13G18    30.04F
FRONT ROYAL*   MOSUNNY   82  52  34 W7G16     30.04F
LURAY*         MOSUNNY   81  50  34 W10       30.06F
NEW MARKET*    MOSUNNY   78  46  33 W3        30.05F
STAUNTON*      SUNNY     79  53  40 SW8       30.09F
WAYNESBORO*    MOSUNNY   78  54  43 W7        30.10S

$$

WVZ021-048>050-054>055-251900-
EASTERN WEST VIRGINIA PANHANDLE

CITY           SKY/WX    TMP DP  RH WIND       PRES   REMARKS
MARTINSBURG    SUNNY     82  46  28 W21G28    30.03F
PETERSBURG*    SUNNY     79  48  33 W10G23    30.10S

$$

VAZ036>039-050-251900-
CENTRAL FOOTHILLS

CITY           SKY/WX    TMP DP  RH WIND       PRES   REMARKS
CHARLOTTESVILL MOSUNNY   84  57  39 N5        30.05F
CULPEPER*      MOSUNNY   84  55  36 NW9       30.04S
ORANGE*        PTSUNNY   81  55  41 W10       30.04F
GORDONSVILLE*  MOSUNNY   83  57  42 CALM      30.04F
WARRENTON*     MOSUNNY   85  50  30 W3        30.03F

$$

VAZ055>057-251900-
NORTH AND CENTRAL PIEDMONT

CITY           SKY/WX    TMP DP  RH WIND       PRES   REMARKS
FREDERICKSBRG* MOSUNNY   83  59  44 W5        30.01F
STAFFORD*      MOSUNNY   82  55  39 CALM      30.06F

$$

NCZ024-NYZ072-PAZ021-071-VAZ022-071-251900-
OTHER REGIONAL OBSERVATIONS

CITY           SKY/WX    TMP DP  RH WIND       PRES   REMARKS
NEW YORK CITY  SUNNY     82  57  42 VRB3      29.96F
PHILADELPHIA   PTSUNNY   83  56  39 W13       29.97F
PITTSBURGH     MOSUNNY   75  46  35 W16G24    30.06F
ROANOKE        MOSUNNY   79  51  37 W17       30.14F
RICHMOND       PTSUNNY   84  63  49 VRB6      30.03F
RALEIGH        CLOUDY    82  62  50 NE7       30.09F

$$

ANZ530>537-251900-
MARINE OBSERVATIONS

STATION/POSITION TIME  TEMP    WIND        PRES
                       AIR SEA DIR/SP/G
                 (UTC) (F)     (DEG/KT/KT) (MB)
THOMAS PT LIGHT  1800   81 78  290/  9/ 12   N/A
BALT KEY BRIDGE  1748   80     260/ 11/ 12 1015.4F
COVE POINT       1748   79      60/  4/  5 1016.8F
LEWISETTA        1748   81 80  360/  5/  8 1016.4F
SOLOMONS ISLAND  1748          100/  3/  4   N/A
PINEY POINT      1736          310/  7/  8   N/A

$$





USA.gov is the U.S. government's official web portal to all federal, state and local government web resources and services.